Regional Weather Roundup
Issued by NWS

Home | Current Version | Previous Version | Graphics & Text | Print | Product List | Glossary Off
Versions: 1 2 3 4 5 6 7 8 9 10 11 12 13 14 15 16 17 18 19 20 21 22 23 24 25 26 27 28 29 30 31 32 33 34 35 36 37 38 39 40 41 42 43 44 45 46 47 48 49 50

000
ASUS43 KMKX 102311
RWRWI

WISCONSIN REGIONAL WEATHER ROUNDUP
NATIONAL WEATHER SERVICE MILWAUKEE/SULLIVAN WI
500 PM CST SAT DEC 10 2016

NOTE: "FAIR" INDICATES FEW OR NO CLOUDS BELOW 12,000 FEET WITH NO
SIGNIFICANT WEATHER AND/OR OBSTRUCTIONS TO VISIBILITY.

WIZ001-002-006>008-014>016-023>028-110000-
NORTHWEST WISCONSIN

CITY           SKY/WX    TMP DP  RH WIND       PRES   REMARKS
SUPERIOR ARPT  PTCLDY     7  -1  71 N3        30.36S
ASHLAND        PTCLDY     3  -1  83 CALM      30.36S
HAYWARD        CLOUDY    11   1  64 CALM      30.30S
SIREN          CLOUDY    10   2  69 CALM      30.32F
CUMBERLAND     CLOUDY     9   1  72 CALM      30.30S
RICE LAKE      CLOUDY    11   2  69 CALM      30.34R
CHETEK         CLOUDY    10   2  69 SE3       30.33S
LADYSMITH      PTCLDY    11   4  72 CALM      30.32S
EAU CLAIRE     CLOUDY    13   3  64 S6        30.33F WCI   4
MENOMONIE      CLOUDY    13   5  71 S3        30.34F
NEW RICHMOND   CLOUDY    11   3  69 SE6       30.31F WCI   2
OSCEOLA        CLOUDY    13   4  67 SE5       30.34F WCI   5
$$

WIZ003>005-009-010-017-018-110000-
NORTH CENTRAL WISCONSIN

CITY           SKY/WX    TMP DP  RH WIND       PRES   REMARKS
MANITOWISH WTR CLEAR     -4  -5  93 CALM      30.26S
ARBOR VITAE    CLEAR      4  -1  81 CALM      30.27S
WOODRUFF       CLEAR      4  -1  81 CALM      30.27S
RHINELANDER    CLOUDY     8  -1  66 CALM      30.27S
EAGLE RIVER    CLEAR      4  -3  73 CALM      30.26F
LAND O LAKES   CLEAR      0  -3  85 CALM      30.27F
PHILLIPS       CLOUDY     7   0  74 CALM      30.27S
TOMAHAWK       CLOUDY     6   0  76 CALM      30.29S
MEDFORD        PTCLDY     8   2  73 CALM      30.28S
MERRILL        CLOUDY    10   1  68 CALM      30.32S
$$

WIZ029-030-035-036-043>047-110000-
CENTRAL WISCONSIN

CITY           SKY/WX    TMP DP  RH WIND       PRES   REMARKS
WAUSAU         CLOUDY    10   1  67 W3        30.31S
MOSINEE        MOCLDY    12   3  67 CALM      30.33S
MARSHFIELD     CLOUDY    13   3  64 CALM      30.31S
STEVENS POINT  PTCLDY    13   2  61 CALM      30.34S
WAUPACA        CLOUDY    18   7  63 CALM      30.37S
WAUTOMA        FLURRIES  17   8  67 SW3       30.37S
WISC RAPIDS    CLOUDY    15   6  67 SW3       30.35F
CAMP DOUGLAS   FLURRIES  15  10  80 S3        30.34F
$$

WIZ011>013-019>022-031-037>040-048>050-110000-
NORTHEAST WISCONSIN

CITY           SKY/WX    TMP DP  RH WIND       PRES   REMARKS
ANTIGO         PTCLDY     6   0  76 SW3       30.29S
SHAWANO        CLOUDY    16   6  66 CALM      30.36S
OCONTO         PTCLDY    13   3  62 SW3       30.37S
STURGEON BAY   PTCLDY    14   4  64 S5        30.36F WCI   6
GREEN BAY      CLOUDY    19   8  62 W3        30.37R
MANITOWOC      CLOUDY    18   8  65 W6        30.38S WCI  10
APPLETON       CLOUDY    18   5  57 SW6       30.34R WCI   9
CLINTONVILLE   PTCLDY    16   5  62 CALM      30.36S
OSHKOSH        PTCLDY    17   7  64 SW5       30.37R WCI  10
$$

WIZ032>034-041-042-053>061-110000-
SOUTHWEST WISCONSIN

CITY           SKY/WX    TMP DP  RH WIND       PRES   REMARKS
LA CROSSE      LGT SNOW  16  12  84 CALM      30.35F FOG
SPARTA         LGT SNOW  14  11  87 CALM      30.35F
VIROQUA        CLOUDY    14  12  92 E5        30.30F WCI   6
BOSCOBEL       LGT SNOW  20  16  84 CALM      30.36F FOG
PRAIRIE DU CHI LGT SNOW  19  15  86 E6        30.34F WCI  11
PLATTEVILLE    CLOUDY    20  20  99 SE3       30.34S
$$

WIZ056-057-062-063-064-067-068-110000-
SOUTH CENTRAL WISCONSIN

CITY           SKY/WX    TMP DP  RH WIND       PRES   REMARKS
REEDSBURG      LGT SNOW  16  14  89 CALM      30.35F
BARABOO/DELLS  LGT SNOW  17  13  86 CALM      30.35S VSB 3/4
LONE ROCK      LGT SNOW  19  15  84 E3        30.37F FOG
MINERAL POINT  LGT SNOW  21  19  93 E3        30.32F
MADISON        LGT SNOW  19  15  84 S6        30.36F VSB 1   WCI  11
MIDDLETON      CLOUDY    20  17  88 CALM      30.36F
WATERTOWN      LGT SNOW  19  17  90 SW5       30.37F WCI  12
MONROE         LGT SNOW  21  19  93 SE7       30.33F WCI  13
JANESVILLE     LGT SNOW  21  19  93 CALM      30.38F
$$

WIZ051-052-058>065-066-070>072-110000-
SOUTHEAST WISCONSIN

CITY           SKY/WX    TMP DP  RH WIND       PRES   REMARKS
MILWAUKEE      CLOUDY    24  11  57 W7        30.40R WCI  16
WAUKESHA       LGT SNOW  19  12  73 SW8       30.39R WCI   9
MILWAUKEE/TIMM CLOUDY    21   9  58 SW8       30.40R WCI  12
RACINE         CLOUDY    23  12  62 SW6       30.42R WCI  16
BURLINGTON     LGT SNOW  25  22  89 CALM      30.39S
KENOSHA        LGT SNOW  22  15  75 SW8       30.40R WCI  12
FOND DU LAC    CLOUDY    18   6  59 SW5       30.38R WCI  11
SHEBOYGAN      CLOUDY    18   8  65 W8        30.39R WCI   8
WEST BEND      CLOUDY    19  10  68 W3        30.38R
JUNEAU         LGT SNOW  17  11  77 SW3       30.38S
$$

LSZ147-162-110000-
LAKE SUPERIOR

STATION/POSITION TIME  TEMP    WIND        PRES    WAVE
                       AIR SEA DIR/SP/G            HT/PER
                 (UTC) (F)     (DEG/KT/KT) (MB)    (FT/S)
DEVILS ISLAND    2300   12     210/  9/ 11 1029.4F
PORT WING        2240    9     140/  1/  3 1028.1F
SAXON HARBOR     2240    8     180/  2/  3 1027.8F
$$

LMZ867-665-643>646-110000-
LAKE MICHIGAN

STATION/POSITION TIME  TEMP    WIND        PRES    WAVE
                       AIR SEA DIR/SP/G            HT/PER
                 (UTC) (F)     (DEG/KT/KT) (MB)    (FT/S)
CHAMBERS ISLAND  2230   18     240/  3/  8 1027.4S
NORTHPORT PIER   2300   18      CALM  /  5 1027.4
SISTER BAY       2235   20     290/  7/ 10   N/A
ALGOMA LAKESHORE 2236          300/  1/  3   N/A
KEWAUNEE LAKESHO 2242   17     310/  1/  3 1027.7F
SHEBOYGAN LAKESH 2300   19     240/  8/ 10 1030.1R
PORT WASHINGTON  2230   21     280/  2/  5 1029.8S
KENOSHA   LAKESH 2300   22     220/  8/ 11 1029.5
$$

TC  - TEMPERATURE IN CELSIUS
VSB - VISIBILITY IN STATUTE MILES
WCI - WIND CHILL INDEX
HX  - HEAT INDEX





USA.gov is the U.S. government's official web portal to all federal, state and local government web resources and services.